Regional Weather Roundup
Issued by NWS Spokane, WA

Home | Current Version | Previous Version | Text Only | Print | Product List | Glossary On
Versions: 1 2 3 4 5 6 7 8 9 10 11 12 13 14 15 16 17 18 19 20 21 22 23 24 25 26 27 28 29 30 31 32 33 34 35 36 37 38 39 40 41 42 43 44 45 46 47 48 49 50
000
NZUS01 KOTX 261705
RWROTX
EASTERN WASHINGTON/NORTHERN IDAHO ROUNDUP
NATIONAL WEATHER SERVICE, SPOKANE WA
1000 AM PDT TUE MAY 26 2015

Note: "fair" indicated few or no clouds below 12,000 feet with no
significant weather and/or obstructions to visibility.

...NORTHEAST WASHINGTON AND NORTHERN IDAHO PANHANDLE...

CITY           SKY/WX    TMP DP  RH WIND       PRES   REMARKS
SPOKANE INTL   PTSUNNY   57  49  74 S7        29.98S
SPOKANE DOWNTO PTSUNNY   62  51  67 E5        29.98F
COEUR D ALENE  MOSUNNY   59  48  67 CALM      29.97F
DEER PARK      LGT RAIN  53  51  93 CALM      30.00R FOG
SANDPOINT      PTSUNNY   61  50  67 NE3       29.99S
BONNERS FERRY  PTSUNNY   57  52  82 SW3       29.99S

...SOUTHEAST WASHINGTON AND SOUTHERN IDAHO PANHANDLE...

CITY           SKY/WX    TMP DP  RH WIND       PRES   REMARKS
WALLA WALLA    PTSUNNY   63  47  55 SW9       29.97S
PULLMAN/MOSCOW PTSUNNY   58  48  69 NW5       30.00S
LEWISTON       MOSUNNY   66  51  58 VRB6      29.95F
LOWELL           N/A     63  48  58 CALM      29.97F

...COLUMBIA BASIN...

CITY           SKY/WX    TMP DP  RH WIND       PRES   REMARKS
EPHRATA        PTSUNNY   67  47  48 NE8       29.94F
MOSES LAKE     CLOUDY    64  48  56 E3        29.96S
TRI CITIES     CLOUDY    64  50  60 S7        29.96S
HERMISTON      PTSUNNY   65  47  52 W5        29.96F
PENDLETON      MOSUNNY   64  46  52 NW10      29.97S

...EAST SLOPES CASCADES...

CITY           SKY/WX    TMP DP  RH WIND       PRES   REMARKS
THE DALLES     SUNNY     68  46  45 NW14      29.96F
YAKIMA         SUNNY     69  43  38 CALM      29.95F
ELLENSBURG     SUNNY     68  45  43 NW8       29.95F
WENATCHEE      SUNNY     67  43  41 N3        29.95F
OMAK           PTSUNNY   66  50  56 N8        29.95S

...SOUTHERN BRITISH COLUMBIA...

CITY           SKY/WX    TMP DP  RH WIND       PRES   REMARKS

...WESTERN MONTANA...

CITY           SKY/WX    TMP DP  RH WIND       PRES   REMARKS
MISSOULA       CLOUDY    55  45  68 CALM      30.01F

...NEIGHBORING CITIES...

CITY           SKY/WX    TMP DP  RH WIND       PRES   REMARKS
SEATTLE        PTSUNNY   58  49  72 W3        30.06S



USA.gov is the U.S. government's official web portal to all federal, state and local government web resources and services.